Flag for Poland Weather past 2 weeks in Legnica, Poland

Now
45 °F

Passing clouds.


Feels Like: 35 °F
Forecast: 32 / 49 °F
Wind: 28 mph from Southwest

Location: Wroclaw Ii

Current Time: Feb 28, 2015 at 5:27:00 PM

Latest Report: Feb 28, 2015 at 4:00 PM


Visibility: 25 mi

Pressure: 30.11 "Hg

Humidity: 61%

Dew point: 32 °F

Location of LegnicaLocation

Historic Weather in Legnica — Graph

°F

Legnica temperature yesterday

Maximum temperature yesterday: 48 °F (at 4:00 PM)
Minimum temperature yesterday: 39 °F (at 2:00 AM)
Average temperature yesterday: 43 °F

Past Weeks' High & Low Weather Summary

 TemperatureHumidityPressure
High51 °F (Feb 15, 3:00 PM)97% (Feb 27, 7:00 AM)30.74 "Hg (Feb 27, 7:00 AM)
Low22 °F (Feb 19, 5:00 AM)43% (Feb 21, 1:00 PM)29.50 "Hg (Feb 23, 4:00 PM)
Average38 °F76%30.09 "Hg
* Reported Feb 13 4:00 PM — Feb 28 4:00 PM, Legnica, Weather by CustomWeather, © 2015

Note: Actual official high and low records may vary slightly from our data, if they occured in-between our weather recording intervals... More about our weather records

Advertising

Legnica weather history for previous 24 hours

 ConditionsComfort  
Time TempWeatherWind HumidityBarometerVisibility
4:00 PM
Sat, Feb 28
45 °FOvercast.2 mph61%30.11 "Hg19 mi
3:00 PM44 °FOvercast.3 mph64%30.12 "Hg19 mi
2:00 PM42 °FOvercast.3 mph67%30.13 "Hg19 mi
1:00 PM42 °FOvercast.3 mph71%30.14 "Hg16 mi
12:00 PM41 °FOvercast.5 mph74%30.15 "Hg12 mi
11:00 AM42 °FOvercast.5 mph73%30.13 "Hg12 mi
10:00 AM41 °FOvercast.5 mph76%30.13 "Hg9 mi
9:00 AM39 °FOvercast.5 mph84%30.13 "Hg6 mi
8:00 AMN/APassing clouds.32 mphN/AN/A1 mi
7:00 AM37 °FFog.6 mph88%30.09 "Hg2 mi
6:00 AM38 °FFog.6 mph80%30.06 "Hg5 mi
5:00 AM42 °FOvercast.2 mph75%30.04 "Hg6 mi
3:00 AM42 °FOvercast.3 mph76%30.03 "Hg9 mi
2:00 AM43 °FOvercast.2 mph76%30.02 "Hg9 mi
1:00 AM43 °FOvercast.3 mph78%30.02 "Hg9 mi
12:00 AM44 °FOvercast.1 mph71%30.01 "Hg12 mi
11:00 PM
Fri, Feb 27
43 °FOvercast.2 mph76%30.00 "Hg12 mi
9:00 PM44 °FOvercast.2 mph74%29.99 "Hg12 mi
8:00 PM45 °FOvercast.1 mph74%29.98 "Hg12 mi
7:00 PM45 °FOvercast.2 mph77%29.97 "Hg9 mi
6:00 PM45 °FFog.3 mph76%29.95 "Hg5 mi
5:00 PM47 °FOvercast.3 mph69%29.93 "Hg6 mi
Weather by CustomWeather, © 2015

See weather overviewHow to use our weather pages